Regional Weather Roundup
Issued by NWS Northern Indiana

Home | Current Version | Previous Version | Graphics & Text | Print | Product List | Glossary On
Versions: 1 2 3 4 5 6 7 8 9 10 11 12 13 14 15 16 17 18 19 20 21 22 23 24 25 26 27 28 29 30 31 32 33 34 35 36 37 38 39 40 41 42 43 44 45 46 47 48 49 50
000
ASUS43 KIWX 010510
RWRIWX

KIWX WEATHER ROUNDUP
NATIONAL WEATHER SERVICE NORTHERN INDIANA
100 AM EDT WED OCT 01 2014

NOTE: "FAIR" INDICATES FEW OR NO CLOUDS BELOW 12,000 FEET WITH NO
SIGNIFICANT WEATHER AND/OR OBSTRUCTIONS TO VISIBILITY.

* THESE STATIONS ARE NOT UNDER NWS QUALITY CONTROL. THEY ALSO MAY NOT
  REPORT WEATHER SUCH AS PRECIPITATION OR FOG.

INZ001>027-010600-
NORTHERN INDIANA

CITY           SKY/WX    TMP DP  RH WIND       PRES   REMARKS
GARY*          CLOUDY    55  47  75 E7        30.03S
VALPARAISO     PTCLDY    50  46  86 CALM      30.03S
MICHIGAN CITY* CLOUDY    52  46  82 CALM      30.03F
LAPORTE*       MOCLDY    52  49  90 CALM      30.03F
KNOX*          PTCLDY    46  43  91 CALM      30.02S
SOUTH BEND     NOT AVBL
MONTICELLO*    CLEAR     46  46  98 NE3       30.01F
LOGANSPORT*    CLEAR     45  43  93 CALM      30.03S FOG
ROCHESTER*     PTCLDY    46  45  93 CALM      30.02F
WARSAW*        CLOUDY    54  46  76 E3        30.03R
ANGOLA*        CLOUDY    54  46  76 CALM      30.03S
FORT WAYNE     MOCLDY    55  48  77 E6        30.02S
HUNTINGTON*    CLOUDY    50  48  92 CALM      30.02R
PERU/GRISSOM   PTCLDY    47  47 100 NE2       30.01F
MARION*        PTCLDY    43  42  96 CALM      30.02S

$$
INZ028>050-010600-
CENTRAL INDIANA

CITY           SKY/WX    TMP DP  RH WIND       PRES   REMARKS
LAFAYETTE      CLEAR     49  46  90 NE5       30.02R
KOKOMO*        CLEAR     43  39  87 CALM      30.02F
MUNCIE*        CLEAR     43  41  93 CALM      30.01S
INDIANAPOLIS   PTCLDY    53  46  77 E5        29.99S

$$
MIZ043>046-050>051-056>058-064>065-071>073-077>080-010600-
SOUTHWEST LOWER MICHIGAN

CITY           SKY/WX    TMP DP  RH WIND       PRES   REMARKS
BATTLE CREEK   CLOUDY    53  47  79 NE9       30.04S
COLDWATER*     CLOUDY    55  50  86 NE5       30.03S
HILLSDALE*     CLOUDY    52  51  95 NE5       30.04R
HOLLAND        CLOUDY    55  49  80 NE5       30.05
GRAND RAPIDS   CLOUDY    53  50  89 E7        30.06R
KALAMAZOO      CLOUDY    54  49  83 NE3       30.04F
STURGIS*       CLOUDY    54  48  82 CALM      30.03S
THREE RIVERS*  CLOUDY    55  50  85 CALM      30.04S

$$
OHZ001>008-015>018-024>025-010600-
NORTHWEST OHIO

CITY           SKY/WX    TMP DP  RH WIND       PRES   REMARKS
WAUSEON*       FAIR      46  46 100 N3        30.03R
DEFIANCE       MOCLDY    48  45  89 N3        30.04R
FINDLAY        CLOUDY    55  50  83 N7        30.01R
TOLEDO EXPRESS CLEAR     50  47  89 N6        30.02S
TOLEDO METCALF MOCLDY    52  48  86 N5        30.03R
LIMA           MOCLDY    49  46  90 NE3       30.02R

$$
AND FOR LAKE MICHIGAN COASTAL AND OPEN LAKE BUOY OBSERVATIONS

STATION/POSITION TEMP    WIND        PRES    VSBY  WAVE
                 AIR SEA DIR/SP/G                  HT/PER
                 (F)     (DEG/KT/KT) (MB)    (MI)  (FT/S)
CALUMET HARBOR    56      60/  7/ 12 1015.4F
MICHIGAN CITY     54      60/  3/  4   N/A
SAINT JOSEPH      54        CALM     1017.9R
SOUTH LAKE BUOY   56 61  110/  2/  4 1017.4R         2/ 6
4 MI NW BRIDGMAN  56 62   70/  4/  6   N/A           2/ 2
MICHIGAN CITY     55 64  100/  8/ 10   N/A           3/ 2

$$
&&


USA.gov is the U.S. government's official web portal to all federal, state and local government web resources and services.